Location: Agadir Mansour Mhndou
(31.2424°N, 8.7730°W)
Time: 06:43:34
(UTC+00:00)

NOSS 2-3 (E) - Pass Details

Date: 16 October 2021
Orbit: 540 x 1670 km, 63.4° (Epoch: 25 November)

Event Time Altitude Azimuth Distance (km) Brightness Sun altitude
Rises 19:34:17 0° 201° (SSW) 2,728 7.1 -20.5°
Reaches altitude 10° 19:36:29 10° 197° (SSW) 1,801 6.1 -20.9°
Enters shadow 19:39:39 51° 163° (SSE) 686 3.6 -21.6°
